Time,TemperatureF,DewpointF,PressureIn,WindDirection,WindDirectionDegrees,WindSpeedMPH,WindSpeedGustMPH,Humidity,HourlyPrecipIn,Conditions,Clouds,dailyrainin,SoftwareType,DateUTC
2013-07-06 00:01:00,74.7,63.5,29.81,South,180,0.0,7.0,68,0.00,,---,0.00,VWS V14.01,2013-07-06 05:01:00,
2013-07-06 00:06:00,74.6,63.3,29.81,South,183,1.0,1.0,68,0.00,,---,0.00,VWS V14.01,2013-07-06 05:06:00,
2013-07-06 00:11:00,74.4,63.2,29.81,South,169,0.0,4.0,68,0.00,,---,0.00,VWS V14.01,2013-07-06 05:11:00,
2013-07-06 00:16:00,74.3,63.1,29.81,South,183,0.0,4.0,68,0.00,,---,0.00,VWS V14.01,2013-07-06 05:16:00,
2013-07-06 00:21:00,74.1,63.3,29.80,South,182,0.0,4.0,69,0.00,,---,0.00,VWS V14.01,2013-07-06 05:21:00,
2013-07-06 00:26:00,74.0,63.2,29.81,South,182,0.0,4.0,69,0.00,,---,0.00,VWS V14.01,2013-07-06 05:26:00,
2013-07-06 00:31:00,73.9,63.1,29.81,South,187,0.0,4.0,69,0.00,,---,0.00,VWS V14.01,2013-07-06 05:31:00,
2013-07-06 00:36:00,73.9,63.1,29.80,SSE,161,0.0,5.0,69,0.00,,---,0.00,VWS V14.01,2013-07-06 05:36:00,
2013-07-06 00:41:00,73.9,63.1,29.80,SSE,159,0.0,5.0,69,0.00,,---,0.00,VWS V14.01,2013-07-06 05:41:00,
2013-07-06 00:46:00,73.9,63.1,29.80,South,174,0.0,12.0,69,0.00,,---,0.00,VWS V14.01,2013-07-06 05:46:00,
2013-07-06 00:51:00,73.9,63.1,29.80,South,179,0.0,12.0,69,0.00,,---,0.00,VWS V14.01,2013-07-06 05:51:00,
2013-07-06 00:56:00,74.0,63.2,29.80,SW,214,0.0,12.0,69,0.00,,---,0.00,VWS V14.01,2013-07-06 05:56:00,
2013-07-06 01:01:00,73.9,63.1,29.81,South,175,2.0,12.0,69,0.00,,---,0.00,VWS V14.01,2013-07-06 06:01:00,
2013-07-06 01:06:00,73.8,63.0,29.80,South,178,0.0,4.0,69,0.00,,---,0.00,VWS V14.01,2013-07-06 06:06:00,
2013-07-06 01:11:00,73.7,62.9,29.81,South,177,0.0,5.0,69,0.00,,---,0.00,VWS V14.01,2013-07-06 06:11:00,
2013-07-06 01:16:00,73.5,62.7,29.80,South,170,1.0,6.0,69,0.00,,---,0.00,VWS V14.01,2013-07-06 06:16:00,
2013-07-06 01:22:00,73.4,62.6,29.80,South,173,0.0,7.0,69,0.00,,---,0.00,VWS V14.01,2013-07-06 06:22:00,
2013-07-06 01:26:00,73.3,62.5,29.80,South,174,0.0,7.0,69,0.00,,---,0.00,VWS V14.01,2013-07-06 06:26:00,
2013-07-06 01:31:00,73.2,62.8,29.80,South,175,0.0,9.0,70,0.00,,---,0.00,VWS V14.01,2013-07-06 06:31:00,
2013-07-06 01:37:00,73.0,62.7,29.81,SSW,195,0.0,2.0,70,0.00,,---,0.00,VWS V14.01,2013-07-06 06:37:00,
2013-07-06 01:41:00,72.8,62.5,29.81,SSW,194,0.0,2.0,70,0.00,,---,0.00,VWS V14.01,2013-07-06 06:41:00,
2013-07-06 01:46:00,72.7,62.4,29.81,East,85,4.0,5.0,70,0.00,,---,0.00,VWS V14.01,2013-07-06 06:46:00,
2013-07-06 01:51:00,72.6,62.3,29.81,South,188,0.0,5.0,70,0.00,,---,0.00,VWS V14.01,2013-07-06 06:51:00,
2013-07-06 01:56:00,72.6,62.3,29.81,South,188,0.0,5.0,70,0.00,,---,0.00,VWS V14.01,2013-07-06 06:56:00,
2013-07-06 02:01:00,72.4,62.5,29.81,SSW,192,0.0,5.0,71,0.00,,---,0.00,VWS V14.01,2013-07-06 07:01:00,
2013-07-06 02:06:00,72.2,62.3,29.81,South,180,0.0,5.0,71,0.00,,---,0.00,VWS V14.01,2013-07-06 07:06:00,
2013-07-06 02:11:00,72.1,62.2,29.81,South,187,0.0,5.0,71,0.00,,---,0.00,VWS V14.01,2013-07-06 07:11:00,
2013-07-06 02:16:00,72.0,62.1,29.81,SSE,163,3.0,5.0,71,0.00,,---,0.00,VWS V14.01,2013-07-06 07:16:00,
2013-07-06 02:21:00,71.9,62.0,29.81,SSW,194,0.0,5.0,71,0.00,,---,0.00,VWS V14.01,2013-07-06 07:21:00,
2013-07-06 02:26:00,71.9,62.0,29.81,SSW,196,3.0,5.0,71,0.00,,---,0.00,VWS V14.01,2013-07-06 07:26:00,
2013-07-06 02:31:00,71.8,61.9,29.81,SSW,200,4.0,5.0,71,0.00,,---,0.00,VWS V14.01,2013-07-06 07:31:00,
2013-07-06 02:36:00,71.9,62.0,29.81,South,186,0.0,5.0,71,0.00,,---,0.00,VWS V14.01,2013-07-06 07:36:00,
2013-07-06 02:41:00,71.9,62.0,29.81,South,183,0.0,5.0,71,0.00,,---,0.00,VWS V14.01,2013-07-06 07:41:00,
2013-07-06 02:46:00,71.9,62.0,29.81,SSW,193,0.0,5.0,71,0.00,,---,0.00,VWS V14.01,2013-07-06 07:46:00,
2013-07-06 02:51:00,71.8,61.9,29.81,SSW,192,0.0,5.0,71,0.00,,---,0.00,VWS V14.01,2013-07-06 07:51:00,
2013-07-06 02:56:00,71.7,61.8,29.82,South,189,0.0,5.0,71,0.00,,---,0.00,VWS V14.01,2013-07-06 07:56:00,
2013-07-06 03:01:00,71.6,61.7,29.82,South,190,0.0,5.0,71,0.00,,---,0.00,VWS V14.01,2013-07-06 08:01:00,
2013-07-06 03:06:00,71.5,61.6,29.82,South,176,0.0,4.0,71,0.00,,---,0.00,VWS V14.01,2013-07-06 08:06:00,
2013-07-06 03:11:00,71.5,62.0,29.82,South,178,0.0,4.0,72,0.00,,---,0.00,VWS V14.01,2013-07-06 08:11:00,
2013-07-06 03:16:00,71.3,61.8,29.82,South,178,0.0,4.0,72,0.00,,---,0.00,VWS V14.01,2013-07-06 08:16:00,
2013-07-06 03:21:00,71.2,61.7,29.82,South,186,2.0,4.0,72,0.00,,---,0.00,VWS V14.01,2013-07-06 08:21:00,
2013-07-06 03:26:00,71.2,61.7,29.82,ESE,102,0.0,4.0,72,0.00,,---,0.00,VWS V14.01,2013-07-06 08:26:00,
2013-07-06 03:31:00,71.2,61.7,29.82,South,179,0.0,4.0,72,0.00,,---,0.00,VWS V14.01,2013-07-06 08:31:00,
2013-07-06 03:36:00,71.1,61.6,29.82,South,182,1.0,5.0,72,0.00,,---,0.00,VWS V14.01,2013-07-06 08:36:00,
2013-07-06 03:41:00,71.0,61.5,29.82,South,187,2.0,5.0,72,0.00,,---,0.00,VWS V14.01,2013-07-06 08:41:00,
2013-07-06 03:46:00,71.0,61.5,29.82,South,180,0.0,5.0,72,0.00,,---,0.00,VWS V14.01,2013-07-06 08:46:00,
2013-07-06 03:51:00,70.9,61.8,29.82,South,186,3.0,5.0,73,0.00,,---,0.00,VWS V14.01,2013-07-06 08:51:00,
2013-07-06 03:56:00,70.8,61.7,29.82,South,186,0.0,5.0,73,0.00,,---,0.00,VWS V14.01,2013-07-06 08:56:00,
2013-07-06 04:01:00,70.6,61.5,29.82,South,190,0.0,5.0,73,0.00,,---,0.00,VWS V14.01,2013-07-06 09:01:00,
2013-07-06 04:06:00,70.5,61.4,29.82,South,188,0.0,3.0,73,0.00,,---,0.00,VWS V14.01,2013-07-06 09:06:00,
2013-07-06 04:11:00,70.4,61.3,29.82,South,188,0.0,3.0,73,0.00,,---,0.00,VWS V14.01,2013-07-06 09:11:00,
2013-07-06 04:16:00,70.2,61.2,29.82,South,187,0.0,4.0,73,0.00,,---,0.00,VWS V14.01,2013-07-06 09:16:00,
2013-07-06 04:21:00,70.1,61.4,29.81,South,188,0.0,4.0,74,0.00,,---,0.00,VWS V14.01,2013-07-06 09:21:00,
2013-07-06 04:26:00,69.9,61.2,29.82,South,188,0.0,4.0,74,0.00,,---,0.00,VWS V14.01,2013-07-06 09:26:00,
2013-07-06 04:31:00,69.8,61.2,29.81,South,187,0.0,4.0,74,0.00,,---,0.00,VWS V14.01,2013-07-06 09:31:00,
2013-07-06 04:36:00,69.7,61.0,29.81,South,187,0.0,1.0,74,0.00,,---,0.00,VWS V14.01,2013-07-06 09:36:00,
2013-07-06 04:41:00,69.5,61.2,29.81,South,187,0.0,3.0,75,0.00,,---,0.00,VWS V14.01,2013-07-06 09:41:00,
2013-07-06 04:46:00,69.4,61.1,29.81,South,187,0.0,3.0,75,0.00,,---,0.00,VWS V14.01,2013-07-06 09:46:00,
2013-07-06 04:51:00,69.3,61.0,29.81,South,187,0.0,4.0,75,0.00,,---,0.00,VWS V14.01,2013-07-06 09:51:00,
2013-07-06 04:56:00,69.2,61.0,29.81,South,188,0.0,4.0,75,0.00,,---,0.00,VWS V14.01,2013-07-06 09:56:00,
2013-07-06 05:01:00,69.1,61.2,29.81,South,188,0.0,4.0,76,0.00,,---,0.00,VWS V14.01,2013-07-06 10:01:00,
2013-07-06 05:06:00,69.0,61.1,29.81,South,188,0.0,3.0,76,0.00,,---,0.00,VWS V14.01,2013-07-06 10:06:00,
2013-07-06 05:11:00,69.0,61.1,29.81,SSW,207,0.0,3.0,76,0.00,,---,0.00,VWS V14.01,2013-07-06 10:11:00,
2013-07-06 05:16:00,69.1,61.2,29.81,ESE,107,0.0,6.0,76,0.00,,---,0.00,VWS V14.01,2013-07-06 10:16:00,
2013-07-06 05:21:00,69.2,61.3,29.81,SE,138,0.0,6.0,76,0.00,,---,0.00,VWS V14.01,2013-07-06 10:21:00,
2013-07-06 05:26:00,69.3,61.4,29.81,SSE,155,0.0,6.0,76,0.00,,---,0.00,VWS V14.01,2013-07-06 10:26:00,
2013-07-06 05:31:00,69.4,61.1,29.81,South,173,3.0,6.0,75,0.00,,---,0.00,VWS V14.01,2013-07-06 10:31:00,
2013-07-06 05:36:00,69.5,61.2,29.81,South,172,0.0,3.0,75,0.00,,---,0.00,VWS V14.01,2013-07-06 10:36:00,
2013-07-06 05:41:00,69.6,61.3,29.81,South,170,0.0,4.0,75,0.00,,---,0.00,VWS V14.01,2013-07-06 10:41:00,
2013-07-06 05:46:00,69.7,61.4,29.82,SE,140,0.0,4.0,75,0.00,,---,0.00,VWS V14.01,2013-07-06 10:46:00,
2013-07-06 05:51:00,69.7,61.4,29.81,South,175,2.0,5.0,75,0.00,,---,0.00,VWS V14.01,2013-07-06 10:51:00,
2013-07-06 05:56:00,69.7,61.4,29.81,SSW,202,2.0,5.0,75,0.00,,---,0.00,VWS V14.01,2013-07-06 10:56:00,
2013-07-06 06:01:00,69.7,61.4,29.81,WSW,258,1.0,5.0,75,0.00,,---,0.00,VWS V14.01,2013-07-06 11:01:00,
2013-07-06 06:06:00,69.8,61.5,29.81,ESE,112,3.0,6.0,75,0.00,,---,0.00,VWS V14.01,2013-07-06 11:06:00,
2013-07-06 06:11:00,69.8,61.5,29.81,SSE,148,0.0,6.0,75,0.00,,---,0.00,VWS V14.01,2013-07-06 11:11:00,
2013-07-06 06:16:00,69.9,61.6,29.81,SSW,196,0.0,6.0,75,0.00,,---,0.00,VWS V14.01,2013-07-06 11:16:00,
2013-07-06 06:21:00,70.0,61.7,29.82,SSW,213,0.0,8.0,75,0.00,,---,0.00,VWS V14.01,2013-07-06 11:21:00,
2013-07-06 06:26:00,70.1,61.4,29.81,SE,145,1.0,8.0,74,0.00,,---,0.00,VWS V14.01,2013-07-06 11:26:00,
2013-07-06 06:31:00,70.3,61.6,29.81,South,188,3.0,9.0,74,0.00,,---,0.00,VWS V14.01,2013-07-06 11:31:00,
2013-07-06 06:36:00,70.4,61.7,29.81,South,179,3.0,4.0,74,0.00,,---,0.00,VWS V14.01,2013-07-06 11:36:00,
2013-07-06 06:41:00,70.6,61.9,29.81,ESE,121,5.0,9.0,74,0.00,,---,0.00,VWS V14.01,2013-07-06 11:41:00,
2013-07-06 06:46:00,70.8,61.7,29.81,SSW,213,1.0,9.0,73,0.00,,---,0.00,VWS V14.01,2013-07-06 11:46:00,
2013-07-06 06:51:00,70.8,61.7,29.81,SSW,195,0.0,9.0,73,0.00,,---,0.00,VWS V14.01,2013-07-06 11:51:00,
2013-07-06 06:56:00,70.9,61.8,29.81,WNW,286,0.0,9.0,73,0.00,,---,0.00,VWS V14.01,2013-07-06 11:56:00,
2013-07-06 07:01:00,70.9,61.8,29.81,South,184,0.0,9.0,73,0.00,,---,0.00,VWS V14.01,2013-07-06 12:01:00,
2013-07-06 07:06:00,71.1,62.0,29.81,South,191,1.0,8.0,73,0.00,,---,0.00,VWS V14.01,2013-07-06 12:06:00,
2013-07-06 07:11:00,71.2,62.1,29.81,SW,229,0.0,8.0,73,0.00,,---,0.00,VWS V14.01,2013-07-06 12:11:00,
2013-07-06 07:16:00,71.4,62.3,29.81,WSW,244,1.0,8.0,73,0.00,,---,0.00,VWS V14.01,2013-07-06 12:16:00,
2013-07-06 07:21:00,71.5,62.4,29.81,South,179,2.0,10.0,73,0.00,,---,0.00,VWS V14.01,2013-07-06 12:21:00,
2013-07-06 07:26:00,71.6,62.5,29.81,South,190,1.0,10.0,73,0.00,,---,0.00,VWS V14.01,2013-07-06 12:26:00,
2013-07-06 07:31:00,71.6,62.1,29.81,SSE,162,0.0,10.0,72,0.00,,---,0.00,VWS V14.01,2013-07-06 12:31:00,
2013-07-06 07:36:00,71.5,62.0,29.81,SE,144,3.0,7.0,72,0.00,,---,0.00,VWS V14.01,2013-07-06 12:36:00,
2013-07-06 07:41:00,71.4,62.3,29.81,South,180,0.0,7.0,73,0.00,,---,0.00,VWS V14.01,2013-07-06 12:41:00,
2013-07-06 07:46:00,71.3,62.2,29.81,South,173,0.0,7.0,73,0.00,,---,0.00,VWS V14.01,2013-07-06 12:46:00,
2013-07-06 07:51:00,71.4,62.3,29.81,SSW,194,3.0,7.0,73,0.00,,---,0.00,VWS V14.01,2013-07-06 12:51:00,
2013-07-06 07:56:00,71.8,63.1,29.81,SSW,200,0.0,7.0,74,0.00,,---,0.00,VWS V14.01,2013-07-06 12:56:00,
2013-07-06 08:01:00,72.3,62.8,29.81,SSW,194,1.0,11.0,72,0.00,,---,0.00,VWS V14.01,2013-07-06 13:01:00,
2013-07-06 08:06:00,72.9,63.3,29.81,SSW,194,0.0,6.0,72,0.00,,---,0.00,VWS V14.01,2013-07-06 13:06:00,
2013-07-06 08:11:00,73.4,63.4,29.81,South,175,4.0,7.0,71,0.00,,---,0.00,VWS V14.01,2013-07-06 13:11:00,
2013-07-06 08:16:00,73.5,63.5,29.81,SSE,166,0.0,7.0,71,0.00,,---,0.00,VWS V14.01,2013-07-06 13:16:00,
2013-07-06 08:21:00,73.9,63.5,29.81,SE,145,0.0,9.0,70,0.00,,---,0.00,VWS V14.01,2013-07-06 13:21:00,
2013-07-06 08:26:00,74.2,63.8,29.81,SSE,153,0.0,9.0,70,0.00,,---,0.00,VWS V14.01,2013-07-06 13:26:00,
2013-07-06 08:31:00,74.5,64.1,29.81,SSW,209,0.0,9.0,70,0.00,,---,0.00,VWS V14.01,2013-07-06 13:31:00,
2013-07-06 08:36:00,74.9,64.1,29.81,South,171,0.0,7.0,69,0.00,,---,0.00,VWS V14.01,2013-07-06 13:36:00,
2013-07-06 08:41:00,75.4,64.5,29.80,SE,146,0.0,9.0,69,0.00,,---,0.00,VWS V14.01,2013-07-06 13:41:00,
2013-07-06 08:46:00,75.9,64.6,29.80,SSE,159,0.0,9.0,68,0.00,,---,0.00,VWS V14.01,2013-07-06 13:46:00,
2013-07-06 08:51:00,76.3,65.0,29.80,SSW,192,3.0,9.0,68,0.00,,---,0.00,VWS V14.01,2013-07-06 13:51:00,
2013-07-06 08:56:00,76.7,65.3,29.80,SSW,193,0.0,9.0,68,0.00,,---,0.00,VWS V14.01,2013-07-06 13:56:00,
2013-07-06 09:01:00,77.1,64.9,29.80,South,187,0.0,11.0,66,0.00,,---,0.00,VWS V14.01,2013-07-06 14:01:00,
2013-07-06 09:06:00,77.4,65.2,29.80,South,186,0.0,8.0,66,0.00,,---,0.00,VWS V14.01,2013-07-06 14:06:00,
2013-07-06 09:11:00,77.9,66.1,29.80,SSW,202,4.0,11.0,67,0.00,,---,0.00,VWS V14.01,2013-07-06 14:11:00,
2013-07-06 09:16:00,78.4,65.7,29.79,SSW,194,1.0,13.0,65,0.00,,---,0.00,VWS V14.01,2013-07-06 14:16:00,
2013-07-06 09:21:00,78.7,66.0,29.79,South,191,2.0,13.0,65,0.00,,---,0.00,VWS V14.01,2013-07-06 14:21:00,
2013-07-06 09:26:00,78.9,65.7,29.79,SW,223,0.0,13.0,64,0.00,,---,0.00,VWS V14.01,2013-07-06 14:26:00,
2013-07-06 09:31:00,79.3,66.1,29.78,SSE,164,4.0,13.0,64,0.00,,---,0.00,VWS V14.01,2013-07-06 14:31:00,
2013-07-06 09:36:00,79.7,66.5,29.79,WSW,241,0.0,4.0,64,0.00,,---,0.00,VWS V14.01,2013-07-06 14:36:00,
2013-07-06 09:41:00,80.2,66.5,29.78,SSW,211,9.0,9.0,63,0.00,,---,0.00,VWS V14.01,2013-07-06 14:41:00,
2013-07-06 09:46:00,80.5,66.3,29.79,SSE,157,7.0,11.0,62,0.00,,---,0.00,VWS V14.01,2013-07-06 14:46:00,
2013-07-06 09:51:00,80.7,66.5,29.79,SW,214,0.0,11.0,62,0.00,,---,0.00,VWS V14.01,2013-07-06 14:51:00,
2013-07-06 09:56:00,80.5,65.8,29.79,SSE,160,9.0,11.0,61,0.00,,---,0.00,VWS V14.01,2013-07-06 14:56:00,
2013-07-06 10:01:00,80.8,67.0,29.79,South,182,3.0,11.0,63,0.00,,---,0.00,VWS V14.01,2013-07-06 15:01:00,
2013-07-06 10:06:00,81.4,67.6,29.79,SE,142,0.0,6.0,63,0.00,,---,0.00,VWS V14.01,2013-07-06 15:06:00,
2013-07-06 10:11:00,81.6,66.9,29.79,SW,215,0.0,7.0,61,0.00,,---,0.00,VWS V14.01,2013-07-06 15:11:00,
2013-07-06 10:16:00,81.7,66.0,29.79,WSW,256,1.0,11.0,59,0.00,,---,0.00,VWS V14.01,2013-07-06 15:16:00,
2013-07-06 10:21:00,81.6,66.4,29.79,West,261,1.0,11.0,60,0.00,,---,0.00,VWS V14.01,2013-07-06 15:21:00,
2013-07-06 10:26:00,81.5,66.8,29.79,SSW,205,7.0,11.0,61,0.00,,---,0.00,VWS V14.01,2013-07-06 15:26:00,
2013-07-06 10:31:00,81.6,65.9,29.78,South,187,3.0,11.0,59,0.00,,---,0.00,VWS V14.01,2013-07-06 15:31:00,
2013-07-06 10:36:00,81.8,67.5,29.78,SW,215,0.0,5.0,62,0.00,,---,0.00,VWS V14.01,2013-07-06 15:36:00,
2013-07-06 10:41:00,82.1,66.4,29.79,SSW,202,3.0,9.0,59,0.00,,---,0.00,VWS V14.01,2013-07-06 15:41:00,
2013-07-06 10:46:00,82.4,67.1,29.78,SW,225,1.0,10.0,60,0.00,,---,0.00,VWS V14.01,2013-07-06 15:46:00,
2013-07-06 10:51:00,82.4,67.1,29.78,SSE,156,0.0,11.0,60,0.00,,---,0.00,VWS V14.01,2013-07-06 15:51:00,
2013-07-06 10:56:00,82.7,67.9,29.78,South,190,0.0,11.0,61,0.00,,---,0.00,VWS V14.01,2013-07-06 15:56:00,
2013-07-06 11:01:00,82.5,67.7,29.78,SW,221,5.0,11.0,61,0.00,,---,0.00,VWS V14.01,2013-07-06 16:01:00,
2013-07-06 11:06:00,82.7,67.4,29.78,WSW,248,2.0,9.0,60,0.00,,---,0.00,VWS V14.01,2013-07-06 16:06:00,
2013-07-06 11:11:00,82.8,68.0,29.78,South,190,3.0,10.0,61,0.00,,---,0.00,VWS V14.01,2013-07-06 16:11:00,
2013-07-06 11:16:00,83.2,68.4,29.78,SSW,209,3.0,10.0,61,0.00,,---,0.00,VWS V14.01,2013-07-06 16:16:00,
2013-07-06 11:21:00,83.7,68.3,29.78,South,181,0.0,10.0,60,0.00,,---,0.00,VWS V14.01,2013-07-06 16:21:00,
2013-07-06 11:26:00,83.9,68.5,29.78,South,169,1.0,11.0,60,0.00,,---,0.00,VWS V14.01,2013-07-06 16:26:00,
2013-07-06 11:31:00,84.3,68.9,29.78,SSW,193,1.0,11.0,60,0.00,,---,0.00,VWS V14.01,2013-07-06 16:31:00,
2013-07-06 11:36:00,84.8,68.9,29.78,South,188,3.0,7.0,59,0.00,,---,0.00,VWS V14.01,2013-07-06 16:36:00,
2013-07-06 11:41:00,85.0,68.1,29.78,SSW,207,3.0,8.0,57,0.00,,---,0.00,VWS V14.01,2013-07-06 16:41:00,